Weather History for Crockett, TX

Change the Weather History Date:

Wednesday, July 24, 2013

  Actual Average (KLFK) Record (KLFK)
Temperature  
Mean Temperature 84 °F 83 °F  
Max Temperature 93 °F 94 °F 105 °F (1934)
Min Temperature 75 °F 72 °F 60 °F (1915)
Degree Days  
Heating Degree Days 0 0  
Month to date heating degree days 0  
Since 1 June heating degree days 0  
Since 1 July heating degree days 0  
Cooling Degree Days 19 18  
Month to date cooling degree days 423  
Year to date cooling degree days 1344  
Since 1 June cooling degree days 875  
Growing Degree Days 34 (Base 50)    
Moisture  
Dew Point 73 °F    
Average Humidity 72    
Maximum Humidity 94    
Minimum Humidity 49    
Precipitation  
Precipitation 0.00 in 0.08 in 5.75 in (1933)
Month to date precipitation 2.44  
Year to date precipitation 26.64  
Snow  
Snow 0.00 in - - ()
Month to date snowfall  
Since 1 June snowfall  
Since 1 July snowfall  
Snow Depth -    
Sea Level Pressure  
Sea Level Pressure 29.97 in    
Wind  
Wind Speed 6 mph (SW)    
Max Wind Speed 14 mph    
Max Gust Speed 18 mph    
Visibility 7 miles    
Events      
T = Trace of Precipitation, MM = Missing Value Source: NWS Daily Summary

Daily Weather History Graph

Daily Weather History Graph

Search for Another Location

Airport:

Trip Planner

Search our weather history database for the weather conditions in past years. The results will help you decide how hot, cold, wet, or windy it might be!

Date:

Astronomy

Jul. 24, 2013 Rise Set
Actual Time 6:33 AM CDT 8:22 PM CDT
Civil Twilight 6:06 AM CDT 8:49 PM CDT
Nautical Twilight 5:34 AM CDT 9:21 PM CDT
Astronomical Twilight 4:59 AM CDT 9:55 PM CDT
Moon 9:44 PM CDT (7/24) 8:42 AM CDT (7/24)
Length of Visible Light 14h 42m
Length of Day
13h 49m
Waning Gibbous, 94% of the Moon is Illuminated
Jul 24
Waning Gibbous
Jul 29
Last Quarter
Aug 6
New
Aug 14
First Quarter
Aug 20
Full

Hourly Weather History & Observations

Time (CDT) Temp. Heat Index Dew Point Humidity Pressure Visibility Wind Dir Wind Speed Gust Speed Precip Events Conditions
12:15 AM 80.6 °F 83.2 °F 68.0 °F 65% 29.95 in 9.0 mi SSW 6.9 mph - N/A   Clear
12:35 AM 80.6 °F 83.2 °F 68.0 °F 65% 29.94 in 9.0 mi SSW 8.1 mph - N/A   Clear
12:55 AM 80.6 °F 83.9 °F 69.8 °F 70% 29.94 in 8.0 mi SSW 8.1 mph - N/A   Clear
1:15 AM 78.8 °F - 69.8 °F 74% 29.95 in 9.0 mi SSW 6.9 mph - N/A   Clear
1:35 AM 78.8 °F - 69.8 °F 74% 29.95 in 9.0 mi SSW 4.6 mph - N/A   Clear
1:55 AM 78.8 °F - 69.8 °F 74% 29.96 in 8.0 mi Calm Calm - N/A   Clear
2:15 AM 78.8 °F - 71.6 °F 78% 29.96 in 7.0 mi SSW 6.9 mph - N/A   Clear
2:35 AM 78.8 °F - 71.6 °F 78% 29.95 in 7.0 mi SSW 6.9 mph - N/A   Clear
2:55 AM 77.0 °F - 71.6 °F 83% 29.96 in 7.0 mi SSW 5.8 mph - N/A   Clear
3:15 AM 75.2 °F - 71.6 °F 89% 29.96 in 7.0 mi SSW 3.5 mph - N/A   Scattered Clouds
3:35 AM 75.2 °F - 73.4 °F 94% 29.96 in 7.0 mi SSW 4.6 mph - N/A   Mostly Cloudy
3:55 AM 75.2 °F - 73.4 °F 94% 29.97 in 7.0 mi SSW 5.8 mph - N/A   Mostly Cloudy
4:15 AM 75.2 °F - 73.4 °F 94% 29.97 in 6.0 mi South 5.8 mph - N/A   Mostly Cloudy
4:35 AM 75.2 °F - 73.4 °F 94% 29.97 in 6.0 mi South 8.1 mph - N/A   Mostly Cloudy
4:55 AM 75.2 °F - 73.4 °F 94% 29.96 in 6.0 mi South 9.2 mph - N/A   Scattered Clouds
5:15 AM 75.2 °F - 73.4 °F 94% 29.97 in 6.0 mi SSW 5.8 mph - N/A   Partly Cloudy
5:35 AM 75.2 °F - 73.4 °F 94% 29.99 in 6.0 mi SSW 5.8 mph - N/A   Mostly Cloudy
5:55 AM 75.2 °F - 73.4 °F 94% 30.00 in 6.0 mi SW 5.8 mph - N/A   Mostly Cloudy
6:15 AM 75.2 °F - 73.4 °F 94% 30.01 in 7.0 mi SW 4.6 mph - N/A   Scattered Clouds
6:35 AM 75.2 °F - 73.4 °F 94% 30.01 in 6.0 mi SSW 3.5 mph - N/A   Partly Cloudy
6:55 AM 75.2 °F - 73.4 °F 94% 30.00 in 5.0 mi SSW 5.8 mph - N/A   Clear
7:15 AM 75.2 °F - 73.4 °F 94% 30.01 in 5.0 mi SSW 4.6 mph - N/A   Clear
7:35 AM 75.2 °F - 73.4 °F 94% 30.00 in 5.0 mi SSW 4.6 mph - N/A   Scattered Clouds
7:55 AM 77.0 °F - 73.4 °F 89% 30.00 in 5.0 mi SSW 5.8 mph - N/A   Mostly Cloudy
8:15 AM 78.8 °F - 73.4 °F 83% 30.01 in 5.0 mi SW 5.8 mph - N/A   Mostly Cloudy
8:35 AM 78.8 °F - 73.4 °F 83% 30.01 in 5.0 mi SW 8.1 mph - N/A   Mostly Cloudy
8:55 AM 80.6 °F 85.4 °F 73.4 °F 79% 30.01 in 5.0 mi SW 8.1 mph - N/A   Haze
9:15 AM 80.6 °F 85.4 °F 73.4 °F 79% 30.05 in 5.0 mi NNW 6.9 mph - N/A   Haze
9:35 AM 80.6 °F 85.4 °F 73.4 °F 79% 30.06 in 6.0 mi NW 6.9 mph - N/A   Haze
9:55 AM 80.6 °F 85.4 °F 73.4 °F 79% 30.05 in 5.0 mi WNW 5.8 mph - N/A   Haze
10:15 AM 82.4 °F 88.2 °F 73.4 °F 74% 30.04 in 6.0 mi WSW 6.9 mph - N/A   Haze
10:35 AM 84.2 °F 90.9 °F 73.4 °F 70% 30.03 in 5.0 mi WSW 8.1 mph - N/A   Haze
10:55 AM 84.2 °F 90.9 °F 73.4 °F 70% 30.05 in 7.0 mi West 8.1 mph - N/A   Scattered Clouds
11:15 AM 84.2 °F 90.9 °F 73.4 °F 70% 30.05 in 7.0 mi NW 6.9 mph - N/A   Partly Cloudy
11:35 AM 86.0 °F 91.8 °F 71.6 °F 62% 30.04 in 6.0 mi West 5.8 mph - N/A   Haze
11:55 AM 87.8 °F 93.8 °F 71.6 °F 58% 30.03 in 7.0 mi West 5.8 mph - N/A   Clear
12:15 PM 87.8 °F 93.8 °F 71.6 °F 58% 30.02 in 8.0 mi WSW 8.1 mph - N/A   Clear
12:35 PM 89.6 °F 96.2 °F 71.6 °F 55% 30.01 in 8.0 mi WSW 6.9 mph 16.1 mph N/A   Clear
12:55 PM 89.6 °F 96.2 °F 71.6 °F 55% 30.00 in 7.0 mi WSW 10.4 mph - N/A   Clear
1:15 PM 89.6 °F 98.2 °F 73.4 °F 59% 30.00 in 7.0 mi WSW 12.7 mph 16.1 mph N/A   Clear
1:35 PM 91.4 °F 100.1 °F 73.4 °F 55% 29.98 in 7.0 mi SSW 12.7 mph 16.1 mph N/A   Clear
1:55 PM 91.4 °F 100.1 °F 73.4 °F 55% 29.97 in 7.0 mi West 12.7 mph 18.4 mph N/A   Clear
2:15 PM 91.4 °F 98.4 °F 71.6 °F 52% 29.95 in 7.0 mi SW 9.2 mph 18.4 mph N/A   Clear
2:35 PM 91.4 °F 100.1 °F 73.4 °F 55% 29.95 in 8.0 mi SSW 11.5 mph 16.1 mph N/A   Clear
2:55 PM 93.2 °F 100.5 °F 71.6 °F 49% 29.94 in 8.0 mi SW 8.1 mph 17.3 mph N/A   Clear
3:15 PM 93.2 °F 102.4 °F 73.4 °F 52% 29.93 in 7.0 mi SW 10.4 mph - N/A   Clear
3:35 PM 93.2 °F 100.5 °F 71.6 °F 49% 29.92 in 7.0 mi SW 11.5 mph 17.3 mph N/A   Clear
3:55 PM 93.2 °F 100.5 °F 71.6 °F 49% 29.92 in 7.0 mi SW 10.4 mph - N/A   Clear
4:15 PM 93.2 °F 100.5 °F 71.6 °F 49% 29.92 in 7.0 mi WSW 13.8 mph - N/A   Clear
4:35 PM 91.4 °F 98.4 °F 71.6 °F 52% 29.92 in 7.0 mi SW 6.9 mph - N/A   Clear
4:55 PM 93.2 °F 100.5 °F 71.6 °F 49% 29.92 in 7.0 mi WSW 11.5 mph - N/A   Clear
5:15 PM 93.2 °F 102.4 °F 73.4 °F 52% 29.92 in 8.0 mi WSW 8.1 mph - N/A   Clear
5:35 PM 93.2 °F 102.4 °F 73.4 °F 52% 29.92 in 7.0 mi WSW 10.4 mph - N/A   Clear
5:55 PM 93.2 °F 102.4 °F 73.4 °F 52% 29.92 in 8.0 mi NW 9.2 mph - N/A   Partly Cloudy
6:15 PM 91.4 °F 100.1 °F 73.4 °F 55% 29.92 in 8.0 mi NW 6.9 mph - N/A   Clear
6:35 PM 91.4 °F 98.4 °F 71.6 °F 52% 29.92 in 8.0 mi NW 6.9 mph - N/A   Clear
6:55 PM 89.6 °F 98.2 °F 73.4 °F 59% 29.93 in 7.0 mi NNW 5.8 mph - N/A   Clear
7:15 PM 89.6 °F 98.2 °F 73.4 °F 59% 29.94 in 7.0 mi NNW 5.8 mph - N/A   Clear
7:35 PM 87.8 °F 95.6 °F 73.4 °F 62% 29.94 in 8.0 mi NNW 4.6 mph - N/A   Clear
7:55 PM 87.8 °F 95.6 °F 73.4 °F 62% 29.94 in 8.0 mi Calm Calm - N/A   Clear
8:15 PM 87.8 °F 95.6 °F 73.4 °F 62% 29.94 in 6.0 mi Calm Calm - N/A   Haze
8:35 PM 84.2 °F 90.9 °F 73.4 °F 70% 29.94 in 6.0 mi Calm Calm - N/A   Haze
8:55 PM 82.4 °F 89.5 °F 75.2 °F 79% 29.95 in 8.0 mi Calm Calm - N/A   Clear
9:15 PM 82.4 °F 89.5 °F 75.2 °F 79% 29.95 in 8.0 mi Calm Calm - N/A   Clear
9:35 PM 82.4 °F 89.5 °F 75.2 °F 79% 29.96 in 8.0 mi Calm Calm - N/A   Clear
9:55 PM 80.6 °F 86.2 °F 75.2 °F 84% 29.96 in 8.0 mi Calm Calm - N/A   Clear
10:15 PM 80.6 °F 85.4 °F 73.4 °F 79% 29.97 in 7.0 mi Calm Calm - N/A   Clear
10:35 PM 80.6 °F 86.2 °F 75.2 °F 84% 29.98 in 8.0 mi Calm Calm - N/A   Clear
10:55 PM 78.8 °F - 75.2 °F 89% 29.98 in 7.0 mi Calm Calm - N/A   Clear
11:15 PM 78.8 °F - 75.2 °F 89% 29.98 in 7.0 mi Calm Calm - N/A   Clear
11:35 PM 78.8 °F - 73.4 °F 83% 29.98 in 7.0 mi Calm Calm - N/A   Clear
11:55 PM 78.8 °F - 73.4 °F 83% 29.99 in 8.0 mi Calm Calm - N/A   Clear